User: anonymous   Login
Location: Berg
(47.2344°N, 9.5296°E)
Time: 19:19:46
(UTC+00:00)
Language:

NOAA 19 - Orbit

View from above orbital plane
View from above orbital plane
View from above satellite
View from above satellite

Ground track
Ground track

The orbit data is extracted from the following two-line orbital elements,

1 33591U 09005A   21341.31943167  .00000049  00000-0  51579-4 0  9994
2 33591  99.1705   6.2063 0014040  11.4230 348.7257 14.12513225661321
Epoch (UTC): 07 December 2021 07:39:58
Eccentricity: 0.0014040
inclination: 99.1705°
perigee height: 840 km
apogee height: 861 km
right ascension of ascending node: 6.2063°
argument of perigee: 11.4230°
revolutions per day: 14.12513225
mean anomaly at epoch: 348.7257°
orbit number at epoch: 66132

The dashed part of the orbit path shows where the satellite is in the earth's shadow,  

DLR